Flag for U.S.A. Weather past 2 weeks in Paradise, California, U.S.A.

Now
72 °F

Passing clouds.


Feels Like: 77 °F
Forecast: 65 / 89 °F
Wind: 3 mph from Northwest

Location: Chico Municipal

Current Time: Aug 28, 2014 at 4:38:23 AM

Latest Report: Aug 28, 2014 at 4:15 AM


Visibility: 10 mi

Pressure: 30.01 "Hg

Humidity: 53%

Dew point: 54 °F

Location of ParadiseLocation

Historic Weather in Paradise — Graph

°F

Paradise temperature yesterday

Maximum temperature yesterday: 93 °F (at 3:50 PM)
Minimum temperature yesterday: 68 °F (at 3:35 AM)
Average temperature yesterday: 80 °F

Past Weeks' High & Low Weather Summary

 TemperatureHumidityPressure
High95 °F (Aug 15, 4:53 PM)83% (Aug 20, 6:50 AM)30.07 "Hg (Aug 20, 6:50 AM)
Low63 °F (Aug 13, 5:35 AM)12% (Aug 17, 3:56 PM)29.68 "Hg (Aug 19, 5:55 PM)
Average77 °F43%29.87 "Hg
* Reported Aug 13 3:15 AM — Aug 28 3:35 AM, Paradise, Weather by CustomWeather, © 2014

Note: Actual official high and low records may vary slightly from our data, if they occured in-between our weather recording intervals... More about our weather records

Advertising

Paradise weather history for previous 24 hours

 ConditionsComfort  
Time TempWeatherWind HumidityBarometerVisibility
3:35 AM
Aug 28
72 °FClear.5 mph53%30.00 "Hg10 mi
3:15 AM72 °FPassing clouds.3 mph53%30.00 "Hg10 mi
2:55 AM72 °FClear.5 mph53%29.99 "Hg10 mi
2:35 AM73 °FClear.6 mph47%29.99 "Hg10 mi
2:15 AM77 °FClear.No wind39%29.99 "Hg10 mi
1:55 AM81 °FClear.No wind32%29.98 "Hg10 mi
1:35 AM81 °FClear.No wind32%29.99 "Hg10 mi
1:15 AM79 °FClear.No wind37%29.98 "Hg10 mi
12:55 AM82 °FClear.No wind30%29.98 "Hg10 mi
12:35 AM84 °FClear.3 mph29%29.98 "Hg10 mi
12:15 AM84 °FClear.3 mph29%29.98 "Hg10 mi
11:55 PM
Aug 27
84 °FClear.5 mph29%29.97 "Hg10 mi
11:35 PM84 °FClear.No wind29%29.97 "Hg10 mi
11:15 PM84 °FClear.No wind27%29.97 "Hg10 mi
10:55 PM86 °FClear.No wind25%29.96 "Hg10 mi
10:35 PM84 °FClear.3 mph31%29.96 "Hg10 mi
10:15 PM84 °FClear.5 mph31%29.96 "Hg10 mi
9:55 PM84 °FClear.5 mph31%29.96 "Hg10 mi
9:35 PM86 °FClear.7 mph31%29.96 "Hg10 mi
9:15 PM86 °FClear.7 mph31%29.95 "Hg10 mi
8:55 PM86 °FClear.6 mph33%29.94 "Hg10 mi
8:35 PM86 °FSunny.7 mph33%29.94 "Hg10 mi
8:15 PM88 °FSunny.7 mph33%29.93 "Hg10 mi
7:55 PM88 °FSunny.6 mph35%29.93 "Hg10 mi
7:35 PM90 °FSunny.6 mph31%29.92 "Hg10 mi
7:15 PM90 °FSunny.8 mph29%29.92 "Hg10 mi
6:55 PM91 °FSunny.8 mph28%29.92 "Hg10 mi
5:50 PM93 °FPassing clouds.7 mph26%29.93 "Hg25 mi
3:50 PM93 °FPassing clouds.9 mph26%29.95 "Hg10 mi
2:54 PM91 °FPassing clouds.5 mph26%29.98 "Hg25 mi
1:48 PM90 °FPassing clouds.5 mph27%30.00 "Hg10 mi
12:47 PM86 °FPassing clouds.5 mph33%30.02 "Hg10 mi
11:47 AM82 °FPassing clouds.6 mph40%30.04 "Hg10 mi
10:47 AM81 °FSunny.5 mph42%30.06 "Hg25 mi
9:47 AM75 °FSunny.5 mph47%30.06 "Hg25 mi
8:48 AM72 °FSunny.5 mph53%30.07 "Hg25 mi
7:50 AM70 °FSunny.6 mph60%30.06 "Hg40 mi
6:55 AM68 °FClear.No wind60%30.04 "Hg40 mi
6:35 AM68 °FClear.3 mph60%30.03 "Hg10 mi
6:15 AM68 °FClear.3 mph60%30.03 "Hg10 mi
5:55 AM68 °FClear.5 mph60%30.02 "Hg10 mi
5:35 AM68 °FClear.5 mph60%30.01 "Hg10 mi
5:15 AM68 °FClear.3 mph60%30.00 "Hg10 mi
4:55 AM70 °FClear.3 mph57%30.00 "Hg10 mi
4:35 AM70 °FClear.3 mph60%30.00 "Hg10 mi
4:15 AM70 °FClear.No wind60%29.99 "Hg10 mi
Weather by CustomWeather, © 2014

See weather overviewHow to use our weather pages